Flag for U.S.A. Weather past 2 weeks in Madison, Wisconsin, U.S.A.

Now
73 °F

Partly sunny.


Feels Like: 71 °F
Forecast: 70 / 86 °F
Wind: 6 mph from South

Location: Dane County Regional-Truax Field

Current Time: Sep 2, 2015 at 8:58:13 AM

Latest Report: Sep 2, 2015 at 7:53 AM


Visibility: 7 mi

Pressure: 30.01 "Hg

Humidity: 88%

Dew point: 69 °F

Location of MadisonLocation

Historic Weather in Madison — Graph

°F

Madison temperature yesterday

Maximum temperature yesterday: 87 °F (at 12:53 PM)
Minimum temperature yesterday: 69 °F (at 2:53 AM)
Average temperature yesterday: 78 °F

Past Weeks' High & Low Weather Summary

 TemperatureHumidityPressure
High87 °F (Sep 1, 12:53 PM)100% (Aug 27, 5:53 AM)30.19 "Hg (Aug 27, 5:53 AM)
Low50 °F (Aug 27, 5:53 AM)41% (Aug 21, 4:53 PM)29.54 "Hg (Aug 19, 4:53 AM)
Average66 °F75%29.96 "Hg
* Reported Aug 18 7:53 AM — Sep 2 7:53 AM, Madison, Weather by CustomWeather, © 2015

Note: Actual official high and low records may vary slightly from our data, if they occured in-between our weather recording intervals... More about our weather records

Advertising

Madison weather history for previous 24 hours

 ConditionsComfort  
Time TempWeatherWind HumidityBarometerVisibility
7:53 AM
Wed, Sep 2
73 °FPartly sunny.6 mph88%30.01 "Hg7 mi
6:53 AM70 °FFog.No wind90%30.01 "Hg6 mi
5:53 AM71 °FPartly cloudy.No wind87%29.99 "Hg8 mi
4:53 AM74 °FPassing clouds.No wind82%29.98 "Hg10 mi
3:53 AM75 °FPassing clouds.3 mph82%29.96 "Hg10 mi
2:53 AM75 °FPassing clouds.3 mph82%29.97 "Hg10 mi
1:53 AM76 °FClear.6 mph82%29.96 "Hg10 mi
12:53 AM77 °FClear.6 mph79%29.97 "Hg10 mi
11:53 PM
Tue, Sep 1
77 °FClear.5 mph82%29.97 "Hg10 mi
10:53 PM76 °FClear.No wind85%29.97 "Hg9 mi
9:53 PM78 °FClear.5 mph79%29.97 "Hg10 mi
8:53 PM77 °FClear.No wind82%29.96 "Hg10 mi
7:53 PM82 °FPassing clouds.3 mph70%29.95 "Hg10 mi
6:53 PM84 °FScattered clouds.5 mph63%29.93 "Hg10 mi
5:53 PM86 °FScattered clouds.9 mph59%29.93 "Hg10 mi
3:53 PM87 °FPartly sunny.10 mph57%29.94 "Hg10 mi
2:53 PM87 °FBroken clouds.9 mph55%29.95 "Hg10 mi
1:53 PM87 °FBroken clouds.14 mph57%29.96 "Hg10 mi
12:53 PM87 °FScattered clouds.8 mph57%29.96 "Hg10 mi
11:53 AM85 °FPassing clouds.12 mph59%29.97 "Hg10 mi
10:53 AM83 °FPassing clouds.8 mph65%29.99 "Hg10 mi
9:53 AM79 °FSunny.7 mph74%30.00 "Hg9 mi
8:53 AM76 °FSunny.7 mph82%30.00 "Hg6 mi
Weather by CustomWeather, © 2015

See weather overviewHow to use our weather pages